Location: The Saddle
(36.8333°N, 80.3417°W)
Time: 07:51:58
(UTC-04:00)

Vanguard 2 Rocket - All Passes

Search period start: 08 July 2025 00:00
Search period end: 18 July 2025 00:00
Orbit: 555 x 3291 km, 32.9° (Epoch: 08 July)

Date Brightness Start Highest point End Pass type
(mag) Time Alt. Az. Time Alt. Az. Time Alt. Az.
08 Jul - 09:02:58 10° SW 09:07:26 24° SSE 09:10:54 10° ESE daylight
08 Jul - 11:15:30 10° WSW 11:19:33 47° S 11:23:25 10° E daylight
08 Jul - 13:27:49 10° W 13:31:34 39° S 13:36:24 10° ESE daylight
08 Jul - 15:40:37 10° WSW 15:44:07 18° SSW 15:48:43 10° SSE daylight
09 Jul - 07:58:58 10° SSW 08:03:37 19° SSE 08:07:07 10° ESE daylight
09 Jul - 10:11:25 10° WSW 10:16:01 41° S 10:19:46 10° E daylight
09 Jul - 12:24:14 10° W 12:28:02 46° S 12:32:13 10° ESE daylight
09 Jul - 14:36:44 10° WSW 14:40:13 22° SSW 14:44:45 10° SSE daylight
10 Jul - 06:55:12 10° S 06:59:32 15° SSE 07:02:56 10° SE daylight
10 Jul - 09:07:01 10° SW 09:12:24 34° SSE 09:16:17 10° E daylight
10 Jul - 11:20:21 10° WSW 11:24:31 50° S 11:28:23 10° ESE daylight
10 Jul - 13:33:02 10° WSW 13:36:31 29° SSW 13:40:46 10° SE daylight
10 Jul - 15:48:40 10° SSW 15:49:06 10° SSW 15:49:33 10° SSW daylight
11 Jul - 05:52:19 10° S 05:55:11 12° SSE 05:57:40 10° SE daylight
11 Jul - 08:02:24 10° SW 08:08:35 29° SSE 08:12:49 10° ESE daylight
11 Jul - 10:16:05 10° WSW 10:20:59 50° S 10:24:49 10° E daylight
11 Jul - 12:29:17 10° W 12:32:59 37° SSW 12:36:55 10° SE daylight
11 Jul - 14:42:48 10° SW 14:45:09 14° SSW 14:47:54 10° S daylight
12 Jul - 06:57:43 10° SSW 07:04:31 24° SSE 07:09:12 10° ESE daylight
12 Jul - 09:11:22 10° WSW 09:17:21 45° S 09:21:28 10° E daylight
12 Jul - 11:25:15 10° W 11:29:29 47° S 11:33:17 10° ESE daylight
12 Jul - 13:38:31 10° WSW 13:41:26 19° SSW 13:44:46 10° SSE daylight
13 Jul - 05:53:12 10° SSW 06:00:10 20° SSE 06:05:10 10° ESE daylight
13 Jul - 08:06:18 10° SW 08:13:32 40° SSE 08:18:09 10° E daylight
13 Jul - 10:20:49 10° WSW 10:25:57 53° S 10:29:50 10° ESE daylight
13 Jul - 12:34:25 10° WSW 12:37:52 27° SSW 12:41:26 10° SE daylight
14 Jul - 04:49:18 10° S 04:55:31 15° SSE 05:00:21 10° ESE visible
14 Jul - 07:01:02 10° SW 07:09:28 34° SSE 07:14:46 10° E daylight
14 Jul - 09:15:53 10° WSW 09:22:17 54° S 09:26:33 10° E daylight
14 Jul - 11:30:12 10° W 11:34:24 39° SSW 11:38:04 10° SE daylight
14 Jul - 13:44:48 10° SW 13:46:16 12° SSW 13:47:47 10° S daylight
15 Jul - 03:47:23 10° SSE 03:50:32 11° SSE 03:53:22 10° SE visible
15 Jul - 05:55:44 10° SSW 06:05:06 29° SSE 06:11:07 10° ESE daylight
15 Jul - 08:10:30 10° WSW 08:18:27 51° S 08:23:19 10° E daylight
15 Jul - 10:25:35 10° W 10:30:53 51° S 10:34:47 10° ESE daylight
15 Jul - 12:39:48 10° WSW 12:42:41 19° SSW 12:45:34 10° SSE daylight
16 Jul - 04:50:42 10° SSW 05:00:24 24° SSE 05:07:02 10° ESE visible
16 Jul - 07:04:47 10° SW 07:14:21 45° SSE 07:20:02 10° E daylight
16 Jul - 09:20:29 10° W 09:27:13 58° S 09:31:35 10° ESE daylight
16 Jul - 11:35:12 10° W 11:39:14 30° SSW 11:42:41 10° SE daylight
17 Jul - 03:46:21 10° S 03:55:23 19° SSE 04:02:09 10° ESE visible
17 Jul - 05:58:55 10° SW 06:09:58 39° SSE 06:16:34 10° E daylight
17 Jul - 08:14:51 10° WSW 08:23:20 59° S 08:28:24 10° E daylight
17 Jul - 10:30:23 10° W 10:35:45 44° SSW 10:39:40 10° ESE daylight
17 Jul - 12:45:56 10° SW 12:47:23 12° SSW 12:48:49 10° S daylight
